Weather History for CWGT - July, 2013

Change the Weather History Date:

Saturday, July 13, 2013

  Actual Average Record
Temperature  
Mean Temperature 61 °F -  
Max Temperature 65 °F - - ()
Min Temperature 57 °F - - ()
Degree Days  
Heating Degree Days 4    
Growing Degree Days 11 (Base 50)    
Moisture  
Dew Point 50 °F    
Average Humidity 64    
Maximum Humidity 78    
Minimum Humidity 49    
Precipitation  
Precipitation 0.00 in - - ()
Sea Level Pressure  
Sea Level Pressure 30.15 in    
Wind  
Wind Speed 10 mph ()    
Max Wind Speed 18 mph    
Max Gust Speed -    
T = Trace of Precipitation, MM = Missing Value Source: Averaged Metar Reports

Daily Weather History Graph

Daily Weather History Graph

Search for Another Location

Airport or City:

Trip Planner

Search our weather history database for the weather conditions in past years. The results will help you decide how hot, cold, wet, or windy it might be!

Date:

Astronomy

Jul. 13, 2013 Rise Set
Actual Time 5:25 AM PDT 9:20 PM PDT
Civil Twilight 4:44 AM PDT 10:02 PM PDT
Nautical Twilight 3:46 AM PDT 10:59 PM PDT
Astronomical Twilight 2:09 AM PDT 12:33 AM PDT
Moon 11:23 AM PDT (7/13) 11:25 PM PDT (7/13)
Length of Visible Light 17h 17m
Length of Day
15h 54m
Waxing Crescent, 26% of the Moon is Illuminated
Jul 13
Waxing Crescent
Jul 15
First Quarter
Jul 22
Full
Jul 29
Last Quarter
Aug 6
New

Hourly Weather History & Observations

Time (PDT) Temp. Dew Point Humidity Pressure Visibility Wind Dir Wind Speed Gust Speed Precip Events Conditions
12:00 AM 61.9 °F 54.9 °F 78% 30.06 in - NNW 13.8 mph - N/A   Unknown
1:00 AM 61.2 °F 51.8 °F 71% 30.08 in - NW 15.0 mph - N/A   Unknown
2:00 AM 60.4 °F 48.6 °F 65% 30.09 in - NW 17.3 mph - N/A   Unknown
3:00 AM 59.7 °F 49.5 °F 69% 30.11 in - NW 18.4 mph - N/A   Unknown
4:00 AM 58.8 °F 48.4 °F 68% 30.12 in - NW 13.8 mph - N/A   Unknown
5:00 AM 58 °F 47 °F 59% 30.13 in - NW 12.7 mph - -  
5:00 AM 58.1 °F 47.5 °F 68% 30.13 in - NW 12.7 mph - N/A   Unknown
6:00 AM 57.9 °F 47.8 °F 69% 30.14 in - NW 12.7 mph - N/A   Unknown
7:00 AM 59.0 °F 46.9 °F 64% 30.17 in - NW 12.7 mph - N/A   Unknown
8:00 AM 59.0 °F 48.0 °F 67% 30.18 in - WNW 15.0 mph - N/A   Unknown
9:00 AM 59.2 °F 47.7 °F 66% 30.19 in - NW 11.5 mph - N/A   Unknown
10:00 AM 59.7 °F 48.2 °F 66% 30.20 in - WNW 9.2 mph - N/A   Unknown
11:00 AM 60 °F 49 °F 57% 30.20 in - NW 6.9 mph - -  
11:00 AM 60.3 °F 48.7 °F 66% 30.20 in - NW 6.9 mph - N/A   Unknown
12:00 PM 60.8 °F 49.6 °F 67% 30.20 in - NW 9.2 mph - N/A   Unknown
1:00 PM 63.0 °F 50.4 °F 63% 30.19 in - NNW 4.6 mph - N/A   Unknown
2:00 PM 63.7 °F 50.4 °F 62% 30.19 in - NNW 5.8 mph - N/A   Unknown
3:00 PM 64.0 °F 50.7 °F 62% 30.17 in - NNW 5.8 mph - N/A   Unknown
4:00 PM 64.8 °F 49.3 °F 57% 30.16 in - NNW 6.9 mph - N/A   Unknown
5:00 PM 65 °F 51 °F 49% 30.15 in - NNW 8.1 mph - -  
5:00 PM 64.6 °F 50.5 °F 60% 30.15 in - NNW 8.1 mph - N/A   Unknown
6:00 PM 65.3 °F 51.8 °F 62% 30.14 in - NNW 6.9 mph - N/A   Unknown
7:00 PM 64.2 °F 54.3 °F 70% 30.14 in - NW 5.8 mph - N/A   Unknown
8:00 PM 65.3 °F 53.2 °F 65% 30.12 in - NW 4.6 mph - N/A   Unknown
9:00 PM 64.6 °F 53.4 °F 67% 30.12 in - North 3.5 mph - N/A   Unknown
10:00 PM 64.2 °F 51.6 °F 64% 30.13 in - North 3.5 mph - N/A   Unknown
11:00 PM 65 °F 50 °F 49% 30.12 in - NNW 3.5 mph - -  
11:00 PM 65.5 °F 50.4 °F 58% 30.12 in - NNW 3.5 mph - N/A   Unknown